Monticello, KY

11:47 PM EST on February 23, 2017 (GMT -0500)
Wayne County

Weather History for KEKQ - June, 2013

Change the Weather History Date:

Thursday, June 27, 2013

  Actual Average Record
Temperature  
Mean Temperature 76 °F -  
Max Temperature 86 °F 86 °F 100 °F (1988)
Min Temperature 66 °F 61 °F 48 °F (1974)
Cooling Degree Days 11    
Growing Degree Days 26 (Base 50)    
Moisture  
Dew Point 73 °F    
Average Humidity 89    
Maximum Humidity 100    
Minimum Humidity 67    
Precipitation  
Precipitation 0.08 in - - ()
Sea Level Pressure  
Sea Level Pressure 29.86 in    
Wind  
Wind Speed 7 mph (WSW)    
Max Wind Speed 13 mph    
Max Gust Speed 17 mph    
Visibility 9 miles    
Events Rain , Thunderstorm    
Averages and records for this station are not official NWS values.
T = Trace of Precipitation, MM = Missing Value Source: NWS Daily Summary

Daily Weather History Graph

Daily Weather History Graph

Search for Another Location

Airport or City:

Trip Planner

Search our weather history database for the weather conditions in past years. The results will help you decide how hot, cold, wet, or windy it might be!

Date:

Astronomy

Jun. 27, 2013 Rise Set
Actual Time 5:22 AM CDT 8:02 PM CDT
Civil Twilight 4:51 AM CDT 8:33 PM CDT
Nautical Twilight 4:13 AM CDT 9:11 PM CDT
Astronomical Twilight 3:30 AM CDT 9:54 PM CDT
Moon 11:08 PM CDT (6/27) 10:14 AM CDT (6/27)
Length of Visible Light 15h 41m
Length of Day
14h 40m
Waning Gibbous, 76% of the Moon is Illuminated
Jun 27
Waning Gibbous
Jun 29
Last Quarter
Jul 8
New
Jul 15
First Quarter
Jul 22
Full

Hourly Weather History & Observations

Time (CDT) Temp. Heat Index Dew Point Humidity Pressure Visibility Wind Dir Wind Speed Gust Speed Precip Events Conditions
12:41 AM 68.0 °F - 68.0 °F 100% 29.95 in 4.0 mi SSW 8.1 mph - 0.06 in Rain , Thunderstorm Light Thunderstorms and Rain
12:56 AM 66.9 °F - 66.9 °F 100% 29.91 in 5.0 mi SSE 6.9 mph - 0.07 in Rain , Thunderstorm Light Thunderstorms and Rain
1:23 AM 68.0 °F - 68.0 °F 100% 29.90 in 10.0 mi SSW 4.6 mph - 0.01 in Rain Light Rain
1:56 AM 68.0 °F - 68.0 °F 100% 29.88 in 10.0 mi South 6.9 mph - 0.01 in   Mostly Cloudy
2:56 AM 68.0 °F - 68.0 °F 100% 29.85 in 10.0 mi South 6.9 mph - N/A   Mostly Cloudy
3:56 AM 68.9 °F - 68.9 °F 100% 29.84 in 10.0 mi SW 5.8 mph - 0.00 in   Scattered Clouds
4:56 AM 72.0 °F - 70.9 °F 96% 29.85 in 10.0 mi SW 5.8 mph - N/A   Scattered Clouds
5:56 AM 72.9 °F - 70.9 °F 93% 29.86 in 10.0 mi SW 6.9 mph - N/A   Mostly Cloudy
6:28 AM 73.4 °F - 71.6 °F 94% 29.88 in 10.0 mi SW 9.2 mph - N/A   Mostly Cloudy
6:40 AM 73.4 °F - 71.6 °F 94% 29.87 in 10.0 mi SW 12.7 mph - N/A   Mostly Cloudy
6:56 AM 72.9 °F - 70.9 °F 93% 29.86 in 10.0 mi WSW 10.4 mph - N/A   Mostly Cloudy
7:56 AM 73.9 °F - 72.0 °F 93% 29.88 in 10.0 mi WSW 8.1 mph - N/A   Overcast
8:56 AM 74.8 °F - 72.0 °F 91% 29.88 in 10.0 mi WSW 9.2 mph - N/A   Overcast
9:56 AM 75.9 °F - 72.9 °F 90% 29.88 in 10.0 mi WSW 10.4 mph - N/A   Overcast
10:28 AM 77.0 °F - 73.4 °F 89% 29.90 in 10.0 mi West 6.9 mph - N/A   Overcast
10:56 AM 77.9 °F - 73.9 °F 88% 29.88 in 10.0 mi West 8.1 mph - N/A   Mostly Cloudy
11:56 AM 81.0 °F 87.3 °F 75.9 °F 85% 29.88 in 7.0 mi West 10.4 mph - N/A   Mostly Cloudy
12:11 PM 80.6 °F 86.2 °F 75.2 °F 84% 29.89 in 7.0 mi West 9.2 mph - N/A   Mostly Cloudy
12:56 PM 81.9 °F 89.7 °F 77.0 °F 85% 29.87 in 8.0 mi WSW 9.2 mph - N/A   Mostly Cloudy
1:24 PM 82.4 °F 89.5 °F 75.2 °F 79% 29.87 in 8.0 mi West 9.2 mph - N/A   Scattered Clouds
1:56 PM 83.8 °F 92.5 °F 75.9 °F 77% 29.86 in 8.0 mi West 9.2 mph - 0.00 in   Scattered Clouds
2:56 PM 86.9 °F 98.3 °F 77.0 °F 72% 29.85 in 9.0 mi Variable 6.9 mph - N/A   Partly Cloudy
3:56 PM 86.9 °F 95.9 °F 74.8 °F 67% 29.83 in 10.0 mi WNW 10.4 mph 17.3 mph N/A   Scattered Clouds
4:56 PM 86.9 °F 95.9 °F 74.8 °F 67% 29.82 in 10.0 mi West 9.2 mph - N/A   Partly Cloudy
5:56 PM 86.0 °F 96.0 °F 75.9 °F 72% 29.82 in 10.0 mi West 10.4 mph - N/A   Partly Cloudy
6:56 PM 81.9 °F 87.7 °F 73.9 °F 77% 29.83 in 10.0 mi NNW 5.8 mph - N/A   Clear
7:56 PM 79.0 °F - 75.9 °F 90% 29.83 in 10.0 mi Calm Calm - N/A   Clear
8:56 PM 77.0 °F - 74.8 °F 93% 29.84 in 8.0 mi Calm Calm - N/A   Scattered Clouds
9:56 PM 75.9 °F - 74.8 °F 96% 29.85 in 8.0 mi Calm Calm - N/A   Clear
10:56 PM 72.0 °F - 72.0 °F 100% 29.85 in 5.0 mi Calm Calm - N/A   Clear
11:56 PM 70.9 °F - 70.9 °F 100% 29.83 in 6.0 mi Calm Calm - N/A   Clear